CDT,Max TemperatureF,Mean TemperatureF,Min TemperatureF,Max Dew PointF,MeanDew PointF,Min DewpointF,Max Humidity, Mean Humidity, Min Humidity, Max Sea Level PressureIn, Mean Sea Level PressureIn, Min Sea Level PressureIn, Max VisibilityMiles, Mean VisibilityMiles, Min VisibilityMiles, Max Wind SpeedMPH, Mean Wind SpeedMPH, Max Gust SpeedMPH,PrecipitationIn, CloudCover, Events, WindDirDegrees
2012-9-1,84,68,51,55,50,45,94,54,30,30.12,29.95,29.73,10,10,10,24,8,36,0.00,1,,143
2012-9-2,80,70,59,66,57,50,88,61,42,29.80,29.74,29.69,10,10,10,22,12,30,0.00,1,Rain-Thunderstorm,215
2012-9-3,80,68,55,55,46,37,68,47,21,29.87,29.83,29.80,10,10,10,14,6,24,0.00,0,,247
2012-9-4,82,66,50,59,49,37,100,61,24,29.86,29.80,29.73,10,10,10,16,6,25,0.00,0,,267
2012-9-5,71,61,51,48,45,37,88,54,38,29.86,29.83,29.80,10,10,10,20,8,28,0.00,3,,291
2012-9-6,66,57,48,55,49,41,100,71,40,30.03,29.93,29.86,10,10,9,15,6,21,0.02,6,Rain,329
2012-9-7,68,59,50,50,44,39,94,62,37,30.12,30.07,29.99,10,10,10,18,9,24,0.00,5,,317
2012-9-8,66,55,44,48,42,39,87,56,37,30.17,30.03,29.87,10,10,10,30,12,39,0.00,2,,325
2012-9-9,73,55,37,48,39,32,100,61,22,30.19,30.07,29.84,10,10,10,15,4,22,0.00,0,,189
2012-9-10,84,66,48,50,44,39,76,47,26,29.83,29.63,29.52,10,10,10,17,10,25,0.00,1,,177
2012-9-11,69,62,55,46,35,27,63,35,21,29.89,29.72,29.54,10,10,9,25,7,33,0.00,1,Rain,291
2012-9-12,68,54,41,30,25,19,57,30,17,30.18,30.00,29.89,10,10,9,28,13,45,0.00,0,,275
2012-9-13,60,48,35,37,31,25,93,55,31,30.34,30.27,30.19,10,10,8,14,2,23,0.00,2,Rain,341
2012-9-14,73,52,30,39,34,30,100,59,22,30.35,30.27,30.12,10,10,5,15,4,22,0.00,0,,184
2012-9-15,82,64,46,45,37,32,66,40,21,30.12,29.94,29.81,10,10,3,17,12,23,0.00,0,,164
2012-9-16,57,49,41,45,40,34,87,64,44,30.12,30.08,29.94,10,10,10,17,10,25,0.00,1,,342
2012-9-17,51,42,32,45,38,32,100,89,54,30.15,30.10,30.06,10,10,2,10,3,17,0.22,4,Rain,316
2012-9-18,64,50,35,41,35,30,100,61,28,30.06,29.82,29.52,10,10,10,18,6,29,0.00,3,,173
2012-9-19,60,53,46,45,38,32,66,52,38,29.89,29.69,29.50,10,10,10,25,13,36,0.00,4,,314
2012-9-20,62,53,44,37,34,30,76,53,36,29.91,29.87,29.83,10,10,10,16,8,28,0.00,4,,305
2012-9-21,59,47,35,39,33,23,100,63,34,30.16,29.95,29.84,10,10,7,31,10,43,0.00,4,Rain,322
2012-9-22,53,42,28,36,29,27,93,64,35,30.33,30.28,30.17,10,10,10,15,7,21,0.00,2,,332
2012-9-23,62,42,23,34,25,19,100,57,19,30.32,30.20,29.94,10,10,10,10,2,23,0.00,0,,243
2012-9-24,64,50,35,41,32,23,87,42,27,29.94,29.84,29.76,10,10,10,20,13,30,0.00,0,,316
2012-9-25,57,42,26,37,33,27,100,74,41,30.06,29.99,29.94,10,10,8,12,3,16,0.00,4,,353
2012-9-26,66,46,26,36,31,27,100,64,24,30.17,30.12,30.06,10,10,4,9,2,,0.00,2,,156
2012-9-27,75,60,46,41,35,30,57,44,27,30.15,30.10,30.05,10,10,4,14,6,20,0.00,1,,148
2012-9-28,75,58,41,41,38,34,87,53,25,30.15,30.09,30.05,10,10,7,7,3,,0.00,1,,344
2012-9-29,84,63,42,45,36,27,87,44,12,30.06,29.99,29.89,10,10,9,18,4,23,0.00,0,,158
2012-9-30,75,66,57,48,40,32,51,38,25,30.00,29.86,29.81,10,10,10,18,10,28,0.00,1,,283